Weather History for Gallup, NM

Change the Weather History Date:

Wednesday, October 30, 2013

  Actual Average Record
Temperature  
Mean Temperature 38 °F -  
Max Temperature 50 °F 57 °F 73 °F (2001)
Min Temperature 24 °F 24 °F 6 °F (1993)
Degree Days  
Heating Degree Days 27    
Moisture  
Dew Point 28 °F    
Average Humidity 69    
Maximum Humidity 92    
Minimum Humidity 38    
Precipitation  
Precipitation 0.00 in - - ()
Sea Level Pressure  
Sea Level Pressure 29.92 in    
Wind  
Wind Speed 7 mph (WSW)    
Max Wind Speed 32 mph    
Max Gust Speed 47 mph    
Visibility 10 miles    
Events Rain    
Averages and records for this station are not official NWS values.
T = Trace of Precipitation, MM = Missing Value Source: NWS Daily Summary

Daily Weather History Graph

Daily Weather History Graph

Search for Another Location

Airport:

Trip Planner

Search our weather history database for the weather conditions in past years. The results will help you decide how hot, cold, wet, or windy it might be!

Date:

Astronomy

Oct. 30, 2013 Rise Set
Actual Time 7:35 AM MDT 6:21 PM MDT
Civil Twilight 7:09 AM MDT 6:48 PM MDT
Nautical Twilight 6:39 AM MDT 7:18 PM MDT
Astronomical Twilight 6:09 AM MDT 7:47 PM MDT
Moon 3:35 AM MDT (10/30) 4:01 PM MDT (10/30)
Length of Visible Light 11h 38m
Length of Day
10h 46m
Waning Crescent, 16% of the Moon is Illuminated
Oct 30
Waning Crescent
Nov 3
New
Nov 9
First Quarter
Nov 17
Full
Nov 25
Last Quarter

Hourly Weather History & Observations

Time (MDT) Temp. Windchill Dew Point Humidity Pressure Visibility Wind Dir Wind Speed Gust Speed Precip Events Conditions
12:53 AM 39.0 °F 34.8 °F 28.0 °F 65% 29.78 in 10.0 mi WSW 5.8 mph - N/A   Mostly Cloudy
1:53 AM 37.0 °F - 28.0 °F 70% 29.80 in 10.0 mi Calm Calm - N/A   Overcast
2:53 AM 37.0 °F 34.5 °F 28.9 °F 73% 29.80 in 10.0 mi South 3.5 mph - N/A   Mostly Cloudy
3:53 AM 35.1 °F 32.2 °F 27.0 °F 72% 29.82 in 10.0 mi NW 3.5 mph - N/A   Scattered Clouds
4:53 AM 30.0 °F - 24.1 °F 79% 29.88 in 10.0 mi Calm Calm - N/A   Mostly Cloudy
5:53 AM 34.0 °F 31.0 °F 27.0 °F 75% 29.86 in 10.0 mi SE 3.5 mph - N/A   Overcast
6:53 AM 35.1 °F - 28.0 °F 76% 29.87 in 10.0 mi Calm Calm - N/A   Overcast
7:53 AM 36.0 °F - 28.9 °F 76% 29.91 in 10.0 mi Calm Calm - N/A   Overcast
8:53 AM 39.0 °F - 30.0 °F 70% 29.91 in 10.0 mi Calm Calm - N/A   Overcast
9:53 AM 42.1 °F 40.2 °F 30.0 °F 62% 29.91 in 10.0 mi South 3.5 mph - N/A   Overcast
10:53 AM 45.0 °F 39.3 °F 27.0 °F 49% 29.88 in 10.0 mi WSW 11.5 mph - N/A   Overcast
11:53 AM 46.0 °F 39.0 °F 26.1 °F 46% 29.86 in 10.0 mi WSW 17.3 mph 25.3 mph N/A   Overcast
12:53 PM 50.0 °F - 25.0 °F 38% 29.82 in 10.0 mi SW 18.4 mph 24.2 mph N/A   Scattered Clouds
1:53 PM 44.1 °F 35.4 °F 30.9 °F 60% 29.87 in 10.0 mi West 21.9 mph 33.4 mph N/A   Overcast
2:53 PM 46.0 °F 36.4 °F 27.0 °F 47% 29.84 in 10.0 mi West 32.2 mph 47.2 mph N/A   Mostly Cloudy
3:40 PM 39.2 °F 30.2 °F 30.2 °F 70% 29.98 in 10.0 mi West 17.3 mph - 0.00 in Rain Light Rain
3:48 PM 41.0 °F 32.5 °F 30.2 °F 65% 29.98 in 10.0 mi West 17.3 mph - 0.00 in   Mostly Cloudy
3:53 PM 42.1 °F 33.1 °F 30.0 °F 62% 29.92 in 10.0 mi West 20.7 mph 26.5 mph 0.00 in   Mostly Cloudy
4:53 PM 39.9 °F 32.5 °F 30.0 °F 68% 29.98 in 10.0 mi WSW 12.7 mph - N/A   Scattered Clouds
5:53 PM 39.9 °F 35.1 °F 30.9 °F 70% 29.97 in 10.0 mi West 6.9 mph - 0.00 in   Scattered Clouds
6:17 PM 37.4 °F 29.8 °F 30.2 °F 75% 30.02 in 9.0 mi NW 11.5 mph - 0.00 in   Mostly Cloudy
6:53 PM 36.0 °F 30.3 °F 28.9 °F 76% 30.01 in 10.0 mi West 6.9 mph - 0.00 in   Partly Cloudy
7:53 PM 34.0 °F 28.8 °F 28.0 °F 79% 30.05 in 10.0 mi WSW 5.8 mph - N/A   Mostly Cloudy
8:53 PM 30.9 °F - 26.1 °F 82% 30.06 in 10.0 mi Calm Calm - N/A   Clear
9:53 PM 30.9 °F - 27.0 °F 85% 30.04 in 10.0 mi Calm Calm - N/A   Clear
10:53 PM 26.1 °F - 24.1 °F 92% 30.06 in 10.0 mi Calm Calm - N/A   Clear
11:53 PM 24.1 °F - 21.9 °F 91% 30.09 in 10.0 mi Calm Calm - N/A   Clear